Flag for Slovenia Weather past 2 weeks in Ljubljana, Slovenia

Now
54 °F

Passing clouds.


Feels Like: 54 °F
Forecast: 32 / 61 °F
Wind: 1 mph from Southeast

Location: Ljubljana / Bezigrad

Current Time: Mar 28, 2015 at 10:46:11 AM

Latest Report: Mar 28, 2015 at 10:00 AM


Visibility: 31 mi

Pressure: 30.05 "Hg

Humidity: 38%

Dew point: 29 °F

Location of LjubljanaLocation

Historic Weather in Ljubljana — Graph

°F

Ljubljana temperature yesterday

Maximum temperature yesterday: 50 °F (at 12:00 AM)
Minimum temperature yesterday: 43 °F (at 12:00 PM)
Average temperature yesterday: 46 °F

Past Weeks' High & Low Weather Summary

 TemperatureHumidityPressure
High62 °F (Mar 24, 2:00 PM)98% (Mar 17, 7:00 AM)30.49 "Hg (Mar 17, 7:00 AM)
Low31 °F (Mar 14, 6:00 AM)32% (Mar 19, 3:00 PM)29.67 "Hg (Mar 25, 6:00 PM)
Average45 °F69%30.13 "Hg
* Reported Mar 13 9:00 AM — Mar 28 9:00 AM, Ljubljana, Weather by CustomWeather, © 2015

Note: Actual official high and low records may vary slightly from our data, if they occured in-between our weather recording intervals... More about our weather records

Advertising

Ljubljana weather history for previous 24 hours

 ConditionsComfort  
Time TempWeatherWind HumidityBarometerVisibility
9:00 AM
Sat, Mar 28
49 °FPassing clouds.2 mph53%30.06 "Hg31 mi
8:00 AM44 °FPassing clouds.2 mph65%30.07 "Hg31 mi
7:00 AM40 °FPassing clouds.No wind89%30.07 "Hg31 mi
6:00 AM40 °FPassing clouds.1 mph84%30.05 "Hg25 mi
5:00 AM42 °FScattered clouds.1 mph79%30.03 "Hg16 mi
4:00 AM44 °FQuite cool.1 mph72%30.02 "HgN/A
3:00 AM45 °FQuite cool.1 mph72%30.01 "HgN/A
2:00 AM45 °FQuite cool.2 mph75%30.00 "HgN/A
1:00 AM45 °FCool.2 mph74%29.99 "HgN/A
12:00 AM45 °FCool.1 mph75%29.99 "HgN/A
11:00 PM
Fri, Mar 27
45 °FCool.1 mph75%29.99 "HgN/A
9:00 PM46 °FOvercast.1 mph75%29.98 "Hg12 mi
8:00 PM45 °FOvercast.1 mph81%29.96 "Hg11 mi
7:00 PM46 °FOvercast.1 mph80%29.94 "Hg11 mi
6:00 PM46 °FOvercast.2 mph84%29.92 "Hg11 mi
5:00 PM46 °FOvercast.2 mph85%29.90 "Hg11 mi
4:00 PM46 °FOvercast.2 mph84%29.89 "Hg9 mi
3:00 PM46 °FLight rain. Overcast.1 mph84%29.90 "Hg7 mi
2:00 PM44 °FLight rain. Low clouds.1 mph90%29.90 "Hg7 mi
1:00 PM43 °FLight rain. Low clouds.3 mph89%29.90 "Hg9 mi
12:00 PM43 °FLight rain. Low clouds.3 mph90%29.90 "Hg7 mi
11:00 AM44 °FRain. Overcast.1 mph88%29.88 "Hg5 mi
10:00 AM44 °FRain. Overcast.3 mph87%29.87 "Hg5 mi
Weather by CustomWeather, © 2015

See weather overviewHow to use our weather pages